TimeCDT,TemperatureF,Dew PointF,Humidity,Sea Level PressureIn,VisibilityMPH,Wind Direction,Wind SpeedMPH,Gust SpeedMPH,PrecipitationIn,Events,Conditions,WindDirDegrees,DateUTC
12:53 AM,66.0,55.9,70,29.81,10.0,NNE,3.5,-,N/A,,Clear,20,2013-04-30 05:53:00
1:53 AM,64.0,55.9,75,29.81,10.0,Calm,Calm,-,N/A,,Clear,0,2013-04-30 06:53:00
2:53 AM,63.0,55.0,75,29.81,10.0,North,4.6,-,N/A,,Clear,360,2013-04-30 07:53:00
3:53 AM,60.1,55.0,83,29.81,10.0,ENE,3.5,-,N/A,,Clear,60,2013-04-30 08:53:00
4:53 AM,60.1,55.9,86,29.81,10.0,Calm,Calm,-,N/A,,Clear,0,2013-04-30 09:53:00
5:53 AM,60.1,55.0,83,29.82,10.0,NNE,4.6,-,N/A,,Clear,20,2013-04-30 10:53:00
6:53 AM,59.0,55.0,87,29.84,10.0,Calm,Calm,-,N/A,,Clear,0,2013-04-30 11:53:00
7:53 AM,64.0,57.0,78,29.86,10.0,ENE,3.5,-,N/A,,Clear,60,2013-04-30 12:53:00
8:53 AM,68.0,57.9,70,29.87,10.0,East,4.6,-,N/A,,Clear,90,2013-04-30 13:53:00
9:53 AM,73.9,59.0,59,29.87,10.0,ENE,3.5,-,N/A,,Clear,70,2013-04-30 14:53:00
10:53 AM,79.0,55.9,45,29.86,10.0,South,3.5,-,N/A,,Clear,190,2013-04-30 15:53:00
11:53 AM,81.0,55.0,41,29.85,10.0,South,9.2,17.3,N/A,,Clear,170,2013-04-30 16:53:00
12:53 PM,84.0,52.0,33,29.83,10.0,SE,11.5,20.7,N/A,,Partly Cloudy,140,2013-04-30 17:53:00
1:53 PM,84.0,50.0,31,29.81,10.0,SE,10.4,21.9,N/A,,Partly Cloudy,130,2013-04-30 18:53:00
2:53 PM,84.9,45.0,25,29.80,10.0,SE,12.7,19.6,N/A,,Clear,130,2013-04-30 19:53:00
3:53 PM,84.9,46.9,27,29.78,10.0,ESE,9.2,19.6,N/A,,Clear,120,2013-04-30 20:53:00
4:53 PM,84.9,48.0,28,29.78,10.0,SE,9.2,18.4,N/A,,Clear,140,2013-04-30 21:53:00
5:53 PM,84.9,48.9,29,29.78,10.0,SE,6.9,-,N/A,,Clear,130,2013-04-30 22:53:00
6:53 PM,82.9,50.0,32,29.78,10.0,SSE,8.1,-,N/A,,Clear,150,2013-04-30 23:53:00
7:53 PM,80.1,52.0,38,29.79,10.0,SSE,5.8,-,N/A,,Clear,150,2013-05-01 00:53:00
8:53 PM,75.0,53.1,46,29.80,10.0,ESE,4.6,-,N/A,,Clear,110,2013-05-01 01:53:00
9:53 PM,73.9,52.0,46,29.81,10.0,SE,5.8,-,N/A,,Clear,130,2013-05-01 02:53:00
10:53 PM,72.0,52.0,49,29.83,10.0,ESE,4.6,-,N/A,,Clear,110,2013-05-01 03:53:00
11:53 PM,66.9,54.0,63,29.84,10.0,Calm,Calm,-,N/A,,Clear,0,2013-05-01 04:53:00